SB KEPS @ AMSAT $ORB13143.N 2Line Orbital Elements 13143.AMSAT
HR AMSAT ORBITAL ELEMENTS FOR AMATEUR SATELLITES IN NASA FORMAT FROM WA5QGD FORT WORTH,TX May 23, 2013 BID: ORB13143.N
DECODE 2-LINE ELSETS WITH THE FOLLOWING KEY: 1 AAAAAU 00 0 0 BBBBB.BBBBBBBB .CCCCCCCC 00000-0 00000-0 0 DDDZ 2 AAAAA EEE.EEEE FFF.FFFF GGGGGGG HHH.HHHH III.IIII JJ.JJJJJJJJKKKKKZ KEY: A-CATALOGNUM B-EPOCHTIME C-DECAY D-ELSETNUM E-INCLINATION F-RAAN G-ECCENTRICITY H-ARGPERIGEE I-MNANOM J-MNMOTION K-ORBITNUM Z-CHECKSUM
TO ALL RADIO AMATEURS BT
AO-07 1 07530U 74089B 13143.61942390 -.00000042 00000-0 91444-5 0 6877 2 07530 101.4291 134.0188 0011658 338.6829 132.6668 12.53596416762706 FO-29 1 24278U 96046B 13142.17246623 .00000044 00000-0 83002-4 0 1223 2 24278 098.5574 204.2159 0349890 231.4190 140.5682 13.53000488827790 SO-33 1 25509U 98061B 13142.63403182 .00000470 00000-0 79602-4 0 5011 2 25509 031.4317 212.3026 0351341 294.1775 225.0137 14.29067930761230 RS-22 1 27939U 03042A 13143.51660915 .00000765 00000-0 15289-3 0 4366 2 27939 097.7981 332.6550 0012195 266.2457 093.7356 14.64446800515682 VO-52 1 28650U 05017B 13143.10047440 .00001883 00000-0 23185-3 0 4296 2 28650 097.5682 162.9895 0025661 007.1062 029.1088 14.83847612435369 HO-68 1 36122U 09072B 13143.72769537 -.00000044 00000-0 00000 0 0 5747 2 36122 100.3080 201.3962 0007863 051.7934 308.3891 13.16304321165192 UO-11 1 14781U 84021B 13143.17519605 .00000752 00000-0 10406-3 0 1868 2 14781 097.9047 204.8422 0008783 019.6238 340.5311 14.80883053570230 AO-16 1 20439U 90005D 13142.78702884 .00000142 00000-0 68495-4 0 7527 2 20439 098.4699 083.4054 0010121 229.0070 163.9188 14.32172847218606 LO-19 1 20442U 90005G 13142.83393564 .00000125 00000-0 61898-4 0 6865 2 20442 098.4388 085.3179 0011254 219.2644 198.3315 14.32384023218807 AO-27 1 22825U 93061C 13142.79255275 .00000116 00000-0 62367-4 0 3890 2 22825 098.6167 087.0875 0008340 011.4210 021.2971 14.29562259 25001 IO-26 1 22826U 93061D 13142.80301522 .00000132 00000-0 68184-4 0 1462 2 22826 098.6108 087.3898 0008748 003.9375 058.2006 14.29846255 25139 GO-32 1 25397U 98043D 13141.96358209 .00000044 00000-0 37786-4 0 761 2 25397 098.4123 110.8656 0001799 058.8385 333.4977 14.23340445772210 NO-44 1 26931U 01043C 13143.77940825 .00000127 00000-0 81352-4 0 3338 2 26931 067.0528 322.4274 0007291 283.4743 196.0899 14.29924622607933 SO-50 1 27607U 02058C 13142.79594476 .00000836 00000-0 14893-3 0 715 2 27607 064.5577 341.4350 0048381 172.0746 273.3075 14.72920279559974 CO-55 1 27844U 03031E 13143.06337640 .00000283 00000-0 15005-3 0 6548 2 27844 098.7004 152.5018 0008766 327.2624 065.6286 14.21214922513167 CO-57 1 27848U 03031J 13142.71237139 .00000215 00000-0 11955-3 0 5998 2 27848 098.7091 151.6546 0008811 334.7997 086.2100 14.20940914513047 AO-51 1 28375U 04025K 13143.80487812 .00000321 00000-0 10811-3 0 5644 2 28375 098.1994 100.2453 0084806 090.1008 301.9717 14.41114441467826 CP3 1 31129U 07012N 13142.71828561 .00000828 00000-0 19512-3 0 4674 2 31129 097.8962 136.7976 0101501 146.1406 269.0916 14.53631123323299 CO-65 1 32785U 08021C 13142.81936840 .00001753 00000-0 21731-3 0 6389 2 32785 097.7535 201.0738 0014823 036.4387 027.9798 14.83845641274114 PRISM 1 33493U 09002B 13143.77145747 .00003843 00000-0 44638-3 0 8329 2 33493 098.2135 299.9018 0016958 271.4415 088.4860 14.85896626234292 SOHLA-1 1 33496U 09002E 13143.78479873 .00000545 00000-0 98567-4 0 524 2 33496 098.1327 259.8706 0007155 049.8072 098.2312 14.70282699232282 SO-67 1 35870U 09049F 13143.93095811 .00007576 00000-0 28895-3 0 848 2 35870 097.1930 173.5450 0003584 066.6653 054.5332 15.26945049204554 TISAT-1 1 36799U 10035E 13143.83331853 .00003450 00000-0 42775-3 0 1025 2 36799 098.0334 228.3772 0015363 143.7467 216.4774 14.83260596154964 STUDSAT 1 36801U 10035G 13142.85134332 .00007981 00000-0 87094-3 0 6338 2 36801 098.0455 230.3001 0013028 130.8766 008.2077 14.88138481154960 ALMASAT-1 1 38078U 12006B 13143.76063030 .00044831 00000-0 11133-2 0 2918 2 38078 069.4774 257.6836 0701445 178.4563 181.8946 14.23605596 65769 XATCOBEO 1 38082U 12006F 13143.70857414 .00113180 48764-5 21927-2 0 1711 2 38082 069.4728 235.7295 0588200 166.4953 195.2685 14.52829720 66366 SOMP 1 39135U 13015F 13143.54785338 .00006468 00000-0 51428-3 0 657 2 39135 064.8775 285.9435 0016291 206.6089 153.4693 15.00115783 5137 CUBEBUG-1 1 39153U 13018D 13143.39882754 .00001949 00000-0 28721-3 0 865 2 39153 098.0751 219.1460 0018931 159.3780 200.8189 14.76388703 4022 ESTCUBE-1 1 39161U 13021C 13143.84649077 .00001487 00000-0 26243-3 0 513 2 39161 098.1280 222.2311 0009734 184.5091 175.6029 14.68929255 2423 NOAA-10 1 16969U 86073A 13143.37686507 .00000099 00000-0 57867-4 0 3628 2 16969 098.5467 171.7542 0011207 322.0396 093.7841 14.27639317388403 NOAA-11 1 19531U 88089A 13143.49246654 .00000079 00000-0 63302-4 0 3666 2 19531 098.7110 227.1067 0010458 336.7077 093.3818 14.15015419272636 NOAA-12 1 21263U 91032A 13143.27844269 .00000077 00000-0 51026-4 0 8343 2 21263 098.6981 168.8605 0012655 293.0533 196.4806 14.25565536145001 MET-3/5 1 21655U 91056A 13143.10468338 -.00000203 00000-0 -56044-3 0 6968 2 21655 082.5568 272.0112 0013569 187.5969 172.4950 13.17047808 46635 MET-2/21 1 22782U 93055A 13143.82399573 .00000038 00000-0 20818-4 0 7465 2 22782 082.5485 122.2521 0020986 277.3729 135.1163 13.83704747996279 OKEAN-4 1 23317U 94066A 13143.13220079 .00001263 00000-0 14689-3 0 2252 2 23317 082.5402 073.2443 0019670 311.4060 176.3050 14.84448467 5221 NOAA-14 1 23455U 94089A 13143.37497226 .00000107 00000-0 79632-4 0 3196 2 23455 098.8030 228.1887 0010402 072.7680 347.9871 14.13906569948860 NOAA-15 1 25338U 98030A 13143.45391782 .00000202 00000-0 10480-3 0 7406 2 25338 098.7228 133.7953 0010600 193.3687 319.4823 14.25219560781320 RESURS 1 25394U 98043A 13143.06675638 .00000014 00000-0 23866-4 0 3819 2 25394 098.3594 120.1128 0000980 027.7464 014.0384 14.24330874772782 FENGYUN1 1 25730U 99025A 13142.92001958 .00001723 00000-0 98903-3 0 8788 2 25730 098.8764 102.7442 0026123 114.7553 278.7569 14.10495641722483 OKEAN-0 1 25860U 99039A 13143.81463188 .00000663 00000-0 10698-3 0 9523 2 25860 097.9881 106.5942 0001215 133.7348 256.8198 14.74592531744768 NOAA-16 1 26536U 00055A 13143.26455608 .00000261 00000-0 16501-3 0 2189 2 26536 099.0444 195.7813 0010528 200.2117 199.3105 14.12875303653058 NOAA-17 1 27453U 02032A 13143.50389714 .00000051 00000-0 39318-4 0 1397 2 27453 098.3127 158.8938 0010876 233.5768 280.7212 14.24590421567205 NOAA-18 1 28654U 05018A 13143.50211538 .00000133 00000-0 98172-4 0 6238 2 28654 099.0975 111.3664 0013169 278.3981 230.0725 14.11817651412579 NOAA-19 1 33591U 09005A 13143.44262983 .00000091 00000-0 74286-4 0 8074 2 33591 098.9023 085.7040 0014978 136.9837 000.6671 14.11504721221005 HUBBLE 1 20580U 90037B 13142.83261519 .00001895 00000-0 12304-3 0 2450 2 20580 028.4705 079.0441 0003363 080.8805 311.4228 15.03614807 65874 ISS 1 25544U 98067A 13143.83088981 .00013979 00000-0 24813-3 0 8660 2 25544 051.6494 229.1061 0009556 349.8331 111.0513 15.50459677830921 CO-58 1 28895U 05043F 13143.63365652 .00000817 00000-0 17479-3 0 4826 2 28895 097.8727 000.1538 0018462 155.6480 204.5598 14.61098531403357 FALCON 1 30776U 07006E 13142.82830265 .00004935 00000-0 29583-3 0 6180 2 30776 035.4318 357.8450 0000358 074.4479 352.6963 15.10484074341581 MAST 1 31126U 07012K 13142.57267419 .00000633 00000-0 14982-3 0 7600 2 31126 097.8801 139.9585 0094622 132.2107 015.3294 14.54551705323590 CAPE1 1 31130U 07012P 13142.71276869 .00000699 00000-0 16674-3 0 7680 2 31130 097.8968 136.4333 0101774 147.0367 213.7232 14.53459860323078 COMPASS 1 32787U 08021E 13143.14689099 .00002892 00000-0 34101-3 0 6299 2 32787 097.7545 202.3563 0015116 032.0235 328.1896 14.85426012274245 AAUSAT2 1 32788U 08021F 13143.16327481 .00003683 00000-0 42798-3 0 6162 2 32788 097.7556 202.9807 0014661 032.1069 328.1036 14.85880400274280 DO-64 1 32789U 08021G 13143.78367443 .00005352 00000-0 58171-3 0 6452 2 32789 097.7702 207.2162 0013774 023.8767 072.0394 14.88431911274499 CO-66 1 32791U 08021J 13142.29970817 .00002333 00000-0 28205-3 0 6131 2 32791 097.7549 200.9279 0015718 035.8673 028.4637 14.84574672274032 RS-30 1 32953U 08025A 13143.83384684 .00000010 00000-0 00000 0 0 8789 2 32953 082.5012 083.3342 0017522 288.8441 071.0738 12.43034126226885 METEOR-M 1 35865U 09049A 13143.87824133 .00000015 00000-0 26178-4 0 4749 2 35865 098.6040 196.8961 0002912 129.0889 231.0543 14.21886506191018 RS-38 1 35869U 09049E 13143.70463052 .00000078 00000-0 54357-4 0 4417 2 35869 098.5980 196.6482 0004975 136.0994 224.0580 14.22128772191014 JUGNU 1 37839U 11058B 13143.15504439 .00000440 00000-0 93547-4 0 3925 2 37839 019.9615 098.4541 0019271 008.4820 110.5282 14.12154767 83352 SRMSAT 1 37841U 11058D 13143.32642503 .00000404 00000-0 77932-4 0 3944 2 37841 019.9716 108.9791 0011921 325.5815 185.0639 14.10224886 83263 RAX-2 1 37853U 11061D 13142.60538277 .00006764 00000-0 51133-3 0 5089 2 37853 101.7159 344.3874 0235846 100.8459 294.2837 14.83431001 84653 AUBIESAT 1 37854U 11061E 13143.12899980 .00006889 00000-0 50987-3 0 5038 2 37854 101.7193 345.9689 0235867 098.0357 017.4526 14.84143976 84743 HRBE 1 37855U 11061F 13143.58468919 .00006744 00000-0 50209-3 0 5029 2 37855 101.7191 346.4160 0236819 097.1474 298.9871 14.83818937 84801 RS-39 1 38051U 11062C 13143.26576389 .00020756 00000-0 66953-3 0 4666 2 38051 051.6364 330.8187 0012656 172.6604 178.4068 15.32038387 73958 E-STAR 1 38079U 12006C 13143.72568152 .00083062 39283-5 17208-2 0 1478 2 38079 069.4767 241.3332 0623092 169.6693 337.3319 14.44135290 66204 GOLIAT 1 38085U 12006J 13143.66776423 .00084199 39350-5 17388-2 0 622 2 38085 069.4778 243.4497 0633061 170.7065 190.6498 14.42082240 66146 HORYU-2 1 38340U 12025D 13143.00243897 .00001950 00000-0 32664-3 0 5022 2 38340 098.2136 090.4386 0012207 339.0780 020.9911 14.70898776 54414 RS-40 1 38736U 12041D 13142.15230482 .00000010 00000-0 00000 0 0 2769 2 38736 082.4789 171.3556 0022192 026.9953 333.2267 12.42867981 37010 PROITERES 1 38756U 12047B 13143.40913472 .00001002 00000-0 15959-3 0 8034 2 38756 098.2522 219.9945 0012421 180.1147 180.0062 14.74203497 37749 RAIKO 1 38852U 98067CN 13142.67189138 .00111790 00000-0 74413-3 0 2321 2 38852 051.6376 220.0098 0013506 299.0133 060.9512 15.74442893 35849 FITSAT 1 1 38853U 98067CP 13143.46169322 .00222409 00000-0 94713-3 0 2340 2 38853 051.6406 211.7941 0013733 328.0661 031.9509 15.83935427 36079 TechEdSat 1 38854U 98067CQ 13124.93253577 .11592855 12481-4 94246-3 0 2908 2 38854 051.6449 297.0261 0010505 310.8629 049.0629 16.38844728 33294 F 1 1 38855U 98067CR 13129.77714356 .27424026 12535-4 30797-3 0 2871 2 38855 051.5085 272.4145 0008326 194.2908 166.5495 16.49710473 33949 WeWish 1 38856U 98067CS 13069.98095549 .16701328 12537-4 10063-2 0 2487 2 38856 051.6166 215.0521 0008325 316.0438 044.8765 16.41348316 24586 OSSI-1 1 39131U 13015B 13113.49391669 .00171511 13909-4 85875-3 0 37 2 39131 064.8913 019.7169 0213781 058.2074 115.1737 15.55484603 636 BEESAT-3 1 39134U 13015E 13143.74764981 .00007049 00000-0 56004-3 0 795 2 39134 064.8777 285.3143 0016203 207.1991 152.8778 15.00146903 5167 BEESAT-2 1 39136U 13015G 13143.74733404 .00006338 00000-0 50358-3 0 788 2 39136 064.8781 285.3129 0016277 207.6195 152.4558 15.00140530 5162 /EX
participants (1)
-
Ray Hoad